Location: Antichan
(42.9728°N, 0.6667°E)
Time: 14:19:38
(UTC+00:00)

SL-27 R/B - Pass Details

Date: 15 August 2020
Orbit: 419 x 471 km, 74.7° (Epoch: 24 September)

Event Time Altitude Azimuth Distance (km) Brightness Sun altitude
Exits shadow 20:04:15 17° 95° (E) 1,169 4.0 -11.6°
Drops below altitude 10° 20:06:15 10° 58° (ENE) 1,507 4.8 -11.9°
Sets 20:08:49 0° 37° (NE) 2,377 6.0 -12.3°
